TimeEDT,TemperatureF,Dew PointF,Humidity,Sea Level PressureIn,VisibilityMPH,Wind Direction,Wind SpeedMPH,Gust SpeedMPH,PrecipitationIn,Events,Conditions,WindDirDegrees,DateUTC
12:53 AM,26.1,21.0,81,30.37,10.0,West,4.6,-,N/A,,Clear,260,2013-03-14 04:53:00
1:53 AM,27.0,21.0,78,30.38,10.0,West,6.9,-,N/A,,Clear,270,2013-03-14 05:53:00
2:53 AM,27.0,19.9,75,30.37,10.0,West,4.6,-,N/A,,Clear,260,2013-03-14 06:53:00
3:53 AM,25.0,19.0,78,30.37,10.0,WSW,4.6,-,N/A,,Clear,250,2013-03-14 07:53:00
4:53 AM,27.0,19.0,72,30.38,10.0,West,5.8,-,N/A,,Clear,280,2013-03-14 08:53:00
5:53 AM,26.1,19.0,75,30.38,10.0,West,6.9,-,N/A,,Clear,280,2013-03-14 09:53:00
6:53 AM,24.1,18.0,77,30.38,10.0,West,5.8,-,N/A,,Clear,260,2013-03-14 10:53:00
7:53 AM,21.9,19.0,89,30.39,10.0,South,5.8,-,N/A,,Clear,190,2013-03-14 11:53:00
8:53 AM,26.1,21.0,81,30.40,10.0,SSW,5.8,-,N/A,,Clear,200,2013-03-14 12:53:00
9:53 AM,30.0,21.9,72,30.39,10.0,WSW,5.8,-,N/A,,Clear,250,2013-03-14 13:53:00
10:53 AM,33.1,19.0,56,30.40,10.0,West,6.9,-,N/A,,Clear,270,2013-03-14 14:53:00
11:53 AM,35.1,17.1,48,30.38,10.0,SSW,5.8,-,N/A,,Clear,210,2013-03-14 15:53:00
12:53 PM,37.4,14.0,38,30.35,10.0,WSW,8.1,-,N/A,,Clear,250,2013-03-14 16:53:00
1:53 PM,41.0,17.1,38,30.34,10.0,West,6.9,-,N/A,,Clear,270,2013-03-14 17:53:00
2:53 PM,42.1,17.1,37,30.31,10.0,WSW,13.8,18.4,N/A,,Clear,240,2013-03-14 18:53:00
3:53 PM,42.1,15.1,34,30.27,10.0,SW,5.8,-,N/A,,Clear,230,2013-03-14 19:53:00
4:53 PM,43.0,14.0,31,30.26,10.0,West,9.2,-,N/A,,Clear,260,2013-03-14 20:53:00
5:53 PM,44.1,14.0,30,30.25,10.0,WSW,5.8,-,N/A,,Clear,240,2013-03-14 21:53:00
6:53 PM,42.1,17.1,37,30.25,10.0,WSW,10.4,-,N/A,,Clear,240,2013-03-14 22:53:00
7:53 PM,41.0,16.0,36,30.24,10.0,West,5.8,-,N/A,,Partly Cloudy,270,2013-03-14 23:53:00
8:53 PM,37.9,21.9,53,30.23,10.0,South,4.6,-,N/A,,Mostly Cloudy,190,2013-03-15 00:53:00
9:53 PM,35.1,23.0,61,30.25,10.0,Calm,Calm,-,N/A,,Mostly Cloudy,0,2013-03-15 01:53:00
10:53 PM,35.1,24.1,64,30.24,10.0,SSW,3.5,-,N/A,,Overcast,200,2013-03-15 02:53:00
11:53 PM,35.1,23.0,61,30.21,10.0,WSW,9.2,-,N/A,,Clear,240,2013-03-15 03:53:00